Regional Weather Roundup
Issued by NWS State College, PA

Current Version | Previous Version | Text Only | Print | Product List | Glossary On
Versions: 1 2 3 4 5 6 7 8 9 10 11 12 13 14 15 16 17 18 19 20 21 22 23 24 25 26 27 28 29 30 31 32 33 34 35 36 37 38 39 40 41 42 43 44 45 46 47 48 49 50
000
ASUS41 KCTP 282210
RWRCTP

REGIONAL WEATHER ROUNDUP
NATIONAL WEATHER SERVICE STATE COLLEGE PA
600 PM EDT THU MAY 28 2015

Note: "fair" indicates few or no clouds below 12,000 feet with no
significant weather and/or obstructions to visibility.

* = STATION THAT DOES NOT REPORT PRECIPITATION /E.G. RAIN...SNOW...ETC/
    THUNDER OR FOG.

PAZ002>004-007>009-013>016-020>023-029>032-282300-
WESTERN PENNSYLVANIA

CITY           SKY/WX    TMP DP  RH WIND       PRES   REMARKS
ERIE           SUNNY     75  48  38 N9        30.24F
MEADVILLE      SUNNY     77  52  41 CALM      30.24F
FRANKLIN*      SUNNY     75  54  46 N5        30.26S
NEW CASTLE     FAIR      79  56  45 CALM      30.24S
BEAVER COUNTY  SUNNY     79  54  41 E3        30.23F
BUTLER*        SUNNY     77  52  41 E6        30.25F
PITTSBURGH INT MOSUNNY   80  55  42 E7        30.22F
PITTSBURGH     MOSUNNY   79  51  37 VRB3      30.21F
INDIANA*       SUNNY     77  52  41 VRB6      30.27F
LATROBE        MOSUNNY   79  57  47 N9        30.23F
WASHINGTON CO* SUNNY     77  61  57 N6        30.23F
$$

PAZ004>006-010>012-017>019-024>028-033>037-041-042-045-046-049>053-282300-
CENTRAL PENNSYLVANIA

CITY           SKY/WX    TMP DP  RH WIND       PRES   REMARKS
BRADFORD       SUNNY     74  48  39 N5        30.27F
DUBOIS         MOSUNNY   79  46  31 NE6       30.24F
CLEARFIELD     MOSUNNY   78  49  35 CALM      30.24F
JOHNSTOWN      PTSUNNY   74  54  49 N13       30.26S
ALTOONA        PTSUNNY   80  50  34 N7        30.23F
STATE COLLEGE  SUNNY     79  50  36 VRB9      30.22
WILLIAMSPORT   MOSUNNY   81  51  35 N14       30.18S
SELINSGROVE    PTSUNNY   85  52  32 N8        30.18F
FT INDIANTOWN  PTSUNNY   83  58  42 VRB5      30.16F
CAPITAL CITY   MOSUNNY   84  56  38 N6        30.16F
HARRISBURG     PTSUNNY   83  56  39 NW8       30.15F
YORK           PTSUNNY   83  62  49 NW8       30.16F
$$

PAZ038>040-043-044-047-048-054-055-060>062-067>071-282300-
EASTERN PENNSYLVANIA

CITY           SKY/WX    TMP DP  RH WIND       PRES   REMARKS
SCRANTON       MOSUNNY   80  52  37 NW7G17    30.20S
MOUNT POCONO   MOSUNNY   75  47  36 NW16G24   30.22S
ALLENTOWN      PTSUNNY   86  57  37 NW6       30.14F
QUAKERTOWN*    MOCLDY    84  59  42 W7        30.16F
READING        PTSUNNY   85  56  37 N10       30.14F
LANCASTER      PTSUNNY   85  57  38 NW12      30.16F
COATESVILLE    MOCLDY    82  63  51 NW8       30.17S
POTTSTOWN      PTSUNNY   85  61  44 NW6       30.16S
BLUE BELL      CLOUDY    86  64  48 W7        30.13S
DOYLESTOWN     PTSUNNY   84  59  42 W8        30.13F
WILLOW GROVE   NOT AVBL
NORTH PHILA    CLOUDY    82  62  50 SW6       30.14S
PHILADELPHIA   CLOUDY    84  64  50 SW10      30.13F
$$


USA.gov is the U.S. government's official web portal to all federal, state and local government web resources and services.